Tracking 35274 objects as of 12-Sep-2026
HD Live streaming from Space Station
objects crossing your sky now

STARLINK-30592

Track STARLINK-30592 now!
10-day predictions
STARLINK-30592 is classified as:


NORAD ID: 58102
Int'l Code: 2023-161F
Launch date: October 21, 2023
Source: United States (US)
Launch site: AIR FORCE WESTERN TEST RANGE (AFWTR)
Your satellite tracking list
Your tracking list is empty




NASA's NSSDC Master Catalog

Two Line Element Set (TLE):
1 58102U 23161F   26254.64060484  .00000727  00000-0  32648-4 0  9993
2 58102  53.1623  18.8276 0001131 102.0480 258.0650 15.34394489162938
Source of the keplerian elements: AFSPC